Location: Pl�tzky
(52.0521°N, 11.8020°E)
Time: 10:31:18
(UTC+00:00)

N. Korean satellite - Pass Details

Date: 04 February 2021
Orbit: 451 x 502 km, 97.2° (Epoch: 07 March)

Event Time Altitude Azimuth Distance (km) Brightness Sun altitude
Rises 04:55:38 0° 12° (NNE) 2,491 10.3 -17.4°
Reaches altitude 10° 04:57:41 10° 12° (NNE) 1,606 9.3 -17.1°
Maximum altitude 05:01:07 82° 285° (WNW) 465 6.3 -16.6°
Drops below altitude 10° 05:04:31 10° 198° (SSW) 1,584 9.0 -16.1°
Sets 05:06:32 0° 197° (SSW) 2,452 10.0 -15.7°
